Time,TemperatureF,DewpointF,PressureIn,WindDirection,WindDirectionDegrees,WindSpeedMPH,WindSpeedGustMPH,Humidity,HourlyPrecipIn,Conditions,Clouds,dailyrainin,SoftwareType,DateUTC
2013-12-22 00:04:00,35.5,34.7,29.61,NNW,337,9.0,9.0,97,0.00,,---,0.00,VWS V14.01,2013-12-22 06:04:00,
2013-12-22 00:09:00,35.5,34.7,29.62,NW,322,7.0,10.0,97,0.00,,---,0.00,VWS V14.01,2013-12-22 06:09:00,
2013-12-22 00:14:00,35.5,34.7,29.61,NNE,32,4.0,7.0,97,0.00,,---,0.00,VWS V14.01,2013-12-22 06:14:00,
2013-12-22 00:19:00,35.4,34.6,29.61,NW,319,3.0,7.0,97,0.00,,---,0.00,VWS V14.01,2013-12-22 06:19:00,
2013-12-22 00:24:00,35.4,34.6,29.63,NNW,336,2.0,9.0,97,0.00,,---,0.00,VWS V14.01,2013-12-22 06:24:00,
2013-12-22 00:29:00,35.4,34.6,29.63,NW,304,3.0,8.0,97,0.00,,---,0.00,VWS V14.01,2013-12-22 06:29:00,
2013-12-22 00:34:00,35.4,34.6,29.63,North,355,5.0,7.0,97,0.00,,---,0.00,VWS V14.01,2013-12-22 06:34:00,
2013-12-22 00:39:00,35.4,34.6,29.62,NW,317,2.0,6.0,97,0.00,,---,0.00,VWS V14.01,2013-12-22 06:39:00,
2013-12-22 00:44:00,35.3,34.5,29.62,NW,319,4.0,8.0,97,0.00,,---,0.00,VWS V14.01,2013-12-22 06:44:00,
2013-12-22 00:49:00,35.3,34.5,29.62,NW,314,2.0,8.0,97,0.00,,---,0.00,VWS V14.01,2013-12-22 06:49:00,
2013-12-22 00:54:00,35.3,34.5,29.62,NW,315,5.0,6.0,97,0.00,,---,0.00,VWS V14.01,2013-12-22 06:54:00,
2013-12-22 00:59:00,35.3,34.5,29.63,NW,315,3.0,6.0,97,0.01,,---,0.01,VWS V14.01,2013-12-22 06:59:00,
2013-12-22 01:04:00,35.3,34.5,29.61,NW,315,5.0,6.0,97,0.01,,---,0.01,VWS V14.01,2013-12-22 07:04:00,
2013-12-22 01:09:00,35.3,34.5,29.60,NW,317,0.0,5.0,97,0.01,,---,0.01,VWS V14.01,2013-12-22 07:09:00,
2013-12-22 01:14:00,35.3,34.5,29.61,NW,317,4.0,5.0,97,0.01,,---,0.01,VWS V14.01,2013-12-22 07:14:00,
2013-12-22 01:19:00,35.3,34.5,29.61,NW,317,1.0,5.0,97,0.01,,---,0.01,VWS V14.01,2013-12-22 07:19:00,
2013-12-22 01:24:00,35.3,34.5,29.62,NW,317,1.0,4.0,97,0.01,,---,0.01,VWS V14.01,2013-12-22 07:24:00,
2013-12-22 01:29:00,35.3,34.5,29.62,NW,317,3.0,3.0,97,0.01,,---,0.01,VWS V14.01,2013-12-22 07:29:00,
2013-12-22 01:34:00,35.2,34.4,29.63,NW,317,1.0,4.0,97,0.01,,---,0.01,VWS V14.01,2013-12-22 07:34:00,
2013-12-22 01:39:00,35.3,34.5,29.62,NW,317,1.0,3.0,97,0.01,,---,0.01,VWS V14.01,2013-12-22 07:39:00,
2013-12-22 01:44:00,35.2,34.4,29.62,NW,317,1.0,5.0,97,0.01,,---,0.01,VWS V14.01,2013-12-22 07:44:00,
2013-12-22 01:49:00,35.2,34.4,29.61,NW,317,3.0,5.0,97,0.01,,---,0.01,VWS V14.01,2013-12-22 07:49:00,
2013-12-22 01:54:00,35.2,34.4,29.61,NW,317,0.0,5.0,97,0.01,,---,0.01,VWS V14.01,2013-12-22 07:54:00,
2013-12-22 01:59:00,35.2,34.4,29.61,NW,317,2.0,4.0,97,0.01,,---,0.01,VWS V14.01,2013-12-22 07:59:00,
2013-12-22 02:04:00,35.1,34.3,29.61,NW,317,0.0,3.0,97,0.00,,---,0.01,VWS V14.01,2013-12-22 08:04:00,
2013-12-22 02:09:00,35.1,34.3,29.61,NW,317,3.0,4.0,97,0.00,,---,0.01,VWS V14.01,2013-12-22 08:09:00,
2013-12-22 02:14:00,35.1,34.3,29.61,NW,317,3.0,4.0,97,0.00,,---,0.01,VWS V14.01,2013-12-22 08:14:00,
2013-12-22 02:19:00,35.0,34.2,29.62,NW,317,0.0,4.0,97,0.00,,---,0.01,VWS V14.01,2013-12-22 08:19:00,
2013-12-22 02:24:00,35.0,34.2,29.63,NW,317,2.0,3.0,97,0.00,,---,0.01,VWS V14.01,2013-12-22 08:24:00,
2013-12-22 02:29:00,35.0,34.2,29.64,NW,317,1.0,3.0,97,0.00,,---,0.01,VWS V14.01,2013-12-22 08:29:00,
2013-12-22 02:34:00,35.0,34.2,29.64,NW,317,2.0,4.0,97,0.00,,---,0.01,VWS V14.01,2013-12-22 08:34:00,
2013-12-22 02:39:00,35.0,34.2,29.64,NW,317,0.0,3.0,97,0.00,,---,0.01,VWS V14.01,2013-12-22 08:39:00,
2013-12-22 02:44:00,35.0,34.2,29.65,NW,317,2.0,4.0,97,0.00,,---,0.01,VWS V14.01,2013-12-22 08:44:00,
2013-12-22 02:49:00,35.0,34.2,29.66,NW,317,1.0,5.0,97,0.00,,---,0.01,VWS V14.01,2013-12-22 08:49:00,
2013-12-22 02:54:00,35.0,34.2,29.66,NW,317,4.0,5.0,97,0.00,,---,0.01,VWS V14.01,2013-12-22 08:54:00,
2013-12-22 02:59:00,35.0,34.2,29.66,NW,317,2.0,4.0,97,0.00,,---,0.01,VWS V14.01,2013-12-22 08:59:00,
2013-12-22 03:04:00,35.0,34.2,29.66,NW,316,1.0,5.0,97,0.00,,---,0.01,VWS V14.01,2013-12-22 09:04:00,
2013-12-22 03:09:00,35.1,34.3,29.66,NW,316,2.0,4.0,97,0.00,,---,0.01,VWS V14.01,2013-12-22 09:09:00,
2013-12-22 03:14:00,35.1,34.3,29.67,NW,316,3.0,5.0,97,0.00,,---,0.01,VWS V14.01,2013-12-22 09:14:00,
2013-12-22 03:19:00,35.1,34.3,29.67,WSW,250,3.0,6.0,97,0.00,,---,0.01,VWS V14.01,2013-12-22 09:19:00,
2013-12-22 03:24:00,35.2,34.4,29.67,West,259,7.0,8.0,97,0.00,,---,0.01,VWS V14.01,2013-12-22 09:24:00,
2013-12-22 03:29:00,35.2,34.4,29.67,West,269,2.0,9.0,97,0.00,,---,0.01,VWS V14.01,2013-12-22 09:29:00,
2013-12-22 03:34:00,35.3,34.5,29.67,WSW,240,2.0,9.0,97,0.00,,---,0.01,VWS V14.01,2013-12-22 09:34:00,
2013-12-22 03:39:00,35.2,34.4,29.67,WSW,257,3.0,7.0,97,0.01,,---,0.02,VWS V14.01,2013-12-22 09:39:00,
2013-12-22 03:44:00,35.2,34.4,29.66,West,279,1.0,9.0,97,0.01,,---,0.02,VWS V14.01,2013-12-22 09:44:00,
2013-12-22 03:49:00,35.1,34.3,29.67,West,261,2.0,9.0,97,0.01,,---,0.02,VWS V14.01,2013-12-22 09:49:00,
2013-12-22 03:54:00,35.0,34.2,29.66,West,272,2.0,6.0,97,0.01,,---,0.02,VWS V14.01,2013-12-22 09:54:00,
2013-12-22 03:59:00,34.8,34.0,29.66,West,263,2.0,6.0,97,0.01,,---,0.02,VWS V14.01,2013-12-22 09:59:00,
2013-12-22 04:04:00,34.8,34.0,29.67,West,265,2.0,8.0,97,0.01,,---,0.02,VWS V14.01,2013-12-22 10:04:00,
2013-12-22 04:09:00,34.8,34.0,29.68,West,279,4.0,8.0,97,0.01,,---,0.02,VWS V14.01,2013-12-22 10:09:00,
2013-12-22 04:14:00,34.7,33.9,29.68,West,277,3.0,6.0,97,0.01,,---,0.02,VWS V14.01,2013-12-22 10:14:00,
2013-12-22 04:19:00,34.7,33.9,29.67,WNW,286,4.0,6.0,97,0.01,,---,0.02,VWS V14.01,2013-12-22 10:19:00,
2013-12-22 04:24:00,34.6,33.8,29.68,West,263,6.0,8.0,97,0.01,,---,0.02,VWS V14.01,2013-12-22 10:24:00,
2013-12-22 04:29:00,34.6,33.8,29.68,West,263,6.0,6.0,97,0.01,,---,0.02,VWS V14.01,2013-12-22 10:29:00,
2013-12-22 04:34:00,34.6,33.8,29.67,West,279,3.0,8.0,97,0.01,,---,0.02,VWS V14.01,2013-12-22 10:34:00,
2013-12-22 04:39:00,34.6,33.8,29.68,WSW,254,0.0,6.0,97,0.01,,---,0.02,VWS V14.01,2013-12-22 10:39:00,
2013-12-22 04:44:00,34.6,33.8,29.68,West,279,3.0,7.0,97,0.00,,---,0.02,VWS V14.01,2013-12-22 10:44:00,
2013-12-22 04:49:00,34.5,33.7,29.68,WSW,252,7.0,7.0,97,0.00,,---,0.02,VWS V14.01,2013-12-22 10:49:00,
2013-12-22 04:54:00,34.5,33.7,29.69,WSW,238,5.0,6.0,97,0.00,,---,0.02,VWS V14.01,2013-12-22 10:54:00,
2013-12-22 05:00:00,34.4,33.6,29.70,WSW,243,8.0,9.0,97,0.00,,---,0.02,VWS V14.01,2013-12-22 11:00:00,
2013-12-22 05:05:00,34.5,33.7,29.71,WSW,248,3.0,12.0,97,0.00,,---,0.02,VWS V14.01,2013-12-22 11:05:00,
2013-12-22 05:10:00,34.4,33.6,29.72,SW,230,4.0,8.0,97,0.00,,---,0.02,VWS V14.01,2013-12-22 11:10:00,
2013-12-22 05:15:00,34.5,33.7,29.72,SW,229,3.0,10.0,97,0.00,,---,0.02,VWS V14.01,2013-12-22 11:15:00,
2013-12-22 05:20:00,34.5,33.7,29.73,SW,227,5.0,11.0,97,0.00,,---,0.02,VWS V14.01,2013-12-22 11:20:00,
2013-12-22 05:25:00,34.5,33.7,29.73,West,265,3.0,13.0,97,0.00,,---,0.02,VWS V14.01,2013-12-22 11:25:00,
2013-12-22 05:30:00,34.4,33.6,29.73,WSW,250,3.0,10.0,97,0.00,,---,0.02,VWS V14.01,2013-12-22 11:30:00,
2013-12-22 05:35:00,34.4,33.6,29.74,SW,219,3.0,12.0,97,0.00,,---,0.02,VWS V14.01,2013-12-22 11:35:00,
2013-12-22 05:40:00,34.4,33.6,29.74,SW,229,5.0,9.0,97,0.00,,---,0.02,VWS V14.01,2013-12-22 11:40:00,
2013-12-22 05:45:00,34.3,33.5,29.74,WSW,246,4.0,13.0,97,0.00,,---,0.02,VWS V14.01,2013-12-22 11:45:00,
2013-12-22 05:50:00,34.3,33.5,29.74,SSW,209,8.0,11.0,97,0.00,,---,0.02,VWS V14.01,2013-12-22 11:50:00,
2013-12-22 05:55:00,34.2,33.4,29.74,West,277,10.0,15.0,97,0.00,,---,0.02,VWS V14.01,2013-12-22 11:55:00,
2013-12-22 06:00:00,34.2,33.4,29.74,West,261,2.0,8.0,97,0.00,,---,0.02,VWS V14.01,2013-12-22 12:00:00,
2013-12-22 06:05:00,34.1,33.3,29.73,WSW,256,7.0,13.0,97,0.00,,---,0.02,VWS V14.01,2013-12-22 12:05:00,
2013-12-22 06:10:00,34.1,33.3,29.73,WSW,258,8.0,11.0,97,0.00,,---,0.02,VWS V14.01,2013-12-22 12:10:00,
2013-12-22 06:15:00,34.0,33.2,29.74,WSW,250,4.0,9.0,97,0.00,,---,0.02,VWS V14.01,2013-12-22 12:15:00,
2013-12-22 06:20:00,34.0,33.2,29.75,SSW,206,5.0,14.0,97,0.00,,---,0.02,VWS V14.01,2013-12-22 12:20:00,
2013-12-22 06:25:00,34.0,33.2,29.75,WSW,252,9.0,12.0,97,0.00,,---,0.02,VWS V14.01,2013-12-22 12:25:00,
2013-12-22 06:30:00,33.9,33.1,29.76,SW,232,8.0,12.0,97,0.00,,---,0.02,VWS V14.01,2013-12-22 12:30:00,
2013-12-22 06:35:00,33.9,33.1,29.76,WSW,257,5.0,12.0,97,0.00,,---,0.02,VWS V14.01,2013-12-22 12:35:00,
2013-12-22 06:40:00,33.9,33.1,29.76,SW,223,10.0,15.0,97,0.00,,---,0.02,VWS V14.01,2013-12-22 12:40:00,
2013-12-22 06:45:00,33.8,33.0,29.76,SW,219,8.0,15.0,97,0.00,,---,0.02,VWS V14.01,2013-12-22 12:45:00,
2013-12-22 06:50:00,33.8,33.0,29.77,WSW,252,11.0,15.0,97,0.00,,---,0.02,VWS V14.01,2013-12-22 12:50:00,
2013-12-22 06:55:00,33.8,33.0,29.77,WSW,251,13.0,16.0,97,0.00,,---,0.02,VWS V14.01,2013-12-22 12:55:00,
2013-12-22 07:00:00,33.8,33.0,29.78,West,266,3.0,15.0,97,0.00,,---,0.02,VWS V14.01,2013-12-22 13:00:00,
2013-12-22 07:05:00,33.7,32.9,29.79,West,265,6.0,19.0,97,0.00,,---,0.02,VWS V14.01,2013-12-22 13:05:00,
2013-12-22 07:10:00,33.7,32.9,29.79,WSW,254,9.0,16.0,97,0.00,,---,0.02,VWS V14.01,2013-12-22 13:10:00,
2013-12-22 07:15:00,33.7,32.9,29.80,SW,225,4.0,13.0,97,0.00,,---,0.02,VWS V14.01,2013-12-22 13:15:00,
2013-12-22 07:20:00,33.7,32.9,29.80,SW,224,8.0,16.0,97,0.00,,---,0.02,VWS V14.01,2013-12-22 13:20:00,
2013-12-22 07:25:00,33.7,32.9,29.80,SW,231,10.0,17.0,97,0.00,,---,0.02,VWS V14.01,2013-12-22 13:25:00,
2013-12-22 07:30:00,33.7,32.9,29.80,SW,222,8.0,19.0,97,0.00,,---,0.02,VWS V14.01,2013-12-22 13:30:00,
2013-12-22 07:35:00,33.7,32.9,29.80,West,273,6.0,13.0,97,0.00,,---,0.02,VWS V14.01,2013-12-22 13:35:00,
2013-12-22 07:40:00,33.7,32.9,29.80,SW,224,13.0,15.0,97,0.00,,---,0.02,VWS V14.01,2013-12-22 13:40:00,
2013-12-22 07:45:00,33.7,32.9,29.80,WSW,251,5.0,13.0,97,0.00,,---,0.02,VWS V14.01,2013-12-22 13:45:00,
2013-12-22 07:50:00,33.7,32.9,29.80,West,269,10.0,16.0,97,0.00,,---,0.02,VWS V14.01,2013-12-22 13:50:00,
2013-12-22 07:55:00,33.7,32.9,29.80,WSW,255,5.0,14.0,97,0.00,,---,0.02,VWS V14.01,2013-12-22 13:55:00,
2013-12-22 08:00:00,33.8,33.0,29.81,West,264,3.0,12.0,97,0.00,,---,0.02,VWS V14.01,2013-12-22 14:00:00,
2013-12-22 08:05:00,33.8,33.0,29.81,WSW,248,14.0,14.0,97,0.00,,---,0.02,VWS V14.01,2013-12-22 14:05:00,
2013-12-22 08:10:00,33.8,33.0,29.82,SW,215,6.0,15.0,97,0.00,,---,0.02,VWS V14.01,2013-12-22 14:10:00,
2013-12-22 08:15:00,33.9,33.1,29.82,WSW,242,5.0,13.0,97,0.00,,---,0.02,VWS V14.01,2013-12-22 14:15:00,
2013-12-22 08:20:00,33.9,33.1,29.82,SW,236,13.0,15.0,97,0.00,,---,0.02,VWS V14.01,2013-12-22 14:20:00,
2013-12-22 08:25:00,33.9,33.1,29.82,SW,228,6.0,16.0,97,0.00,,---,0.02,VWS V14.01,2013-12-22 14:25:00,
2013-12-22 08:30:00,33.9,33.1,29.82,WSW,250,8.0,20.0,97,0.00,,---,0.02,VWS V14.01,2013-12-22 14:30:00,
2013-12-22 08:35:00,33.9,33.1,29.82,WSW,241,10.0,22.0,97,0.00,,---,0.02,VWS V14.01,2013-12-22 14:35:00,
2013-12-22 08:40:00,33.9,32.9,29.82,WNW,283,11.0,24.0,96,0.00,,---,0.02,VWS V14.01,2013-12-22 14:40:00,
2013-12-22 08:45:00,33.8,32.8,29.82,West,269,10.0,20.0,96,0.00,,---,0.02,VWS V14.01,2013-12-22 14:45:00,
2013-12-22 08:51:00,33.9,32.9,29.82,West,259,17.0,17.0,96,0.00,,---,0.02,VWS V14.01,2013-12-22 14:51:00,
2013-12-22 08:56:00,34.0,33.0,29.83,WSW,254,9.0,14.0,96,0.00,,---,0.02,VWS V14.01,2013-12-22 14:56:00,
2013-12-22 09:01:00,34.0,32.7,29.83,SW,236,9.0,23.0,95,0.00,,---,0.02,VWS V14.01,2013-12-22 15:01:00,
2013-12-22 09:06:00,33.9,32.6,29.84,SW,225,10.0,24.0,95,0.00,,---,0.02,VWS V14.01,2013-12-22 15:06:00,
2013-12-22 09:11:00,33.9,32.4,29.84,West,267,7.0,9.0,94,0.00,,---,0.02,VWS V14.01,2013-12-22 15:11:00,
2013-12-22 09:16:00,33.9,32.4,29.83,WNW,291,12.0,19.0,94,0.00,,---,0.02,VWS V14.01,2013-12-22 15:16:00,
2013-12-22 09:21:00,34.0,32.5,29.83,West,279,9.0,19.0,94,0.00,,---,0.02,VWS V14.01,2013-12-22 15:21:00,
2013-12-22 09:26:00,34.1,32.3,29.84,West,267,16.0,17.0,93,0.00,,---,0.02,VWS V14.01,2013-12-22 15:26:00,
2013-12-22 09:31:00,34.1,32.3,29.85,West,277,10.0,12.0,93,0.00,,---,0.02,VWS V14.01,2013-12-22 15:31:00,
2013-12-22 09:36:00,34.1,32.3,29.85,West,275,13.0,15.0,93,0.00,,---,0.02,VWS V14.01,2013-12-22 15:36:00,
2013-12-22 09:41:00,34.1,32.3,29.86,West,265,17.0,18.0,93,0.00,,---,0.02,VWS V14.01,2013-12-22 15:41:00,
2013-12-22 09:46:00,34.1,32.3,29.86,WSW,257,8.0,12.0,93,0.00,,---,0.02,VWS V14.01,2013-12-22 15:46:00,
2013-12-22 09:51:00,34.1,32.3,29.88,West,262,11.0,13.0,93,0.00,,---,0.02,VWS V14.01,2013-12-22 15:51:00,
2013-12-22 09:56:00,34.1,32.3,29.87,West,267,7.0,14.0,93,0.00,,---,0.02,VWS V14.01,2013-12-22 15:56:00,
2013-12-22 10:01:00,34.1,32.3,29.88,SW,234,12.0,12.0,93,0.00,,---,0.02,VWS V14.01,2013-12-22 16:01:00,
2013-12-22 10:06:00,34.1,32.3,29.87,WNW,296,3.0,12.0,93,0.00,,---,0.02,VWS V14.01,2013-12-22 16:06:00,
2013-12-22 10:11:00,34.1,32.3,29.87,SW,233,10.0,16.0,93,0.00,,---,0.02,VWS V14.01,2013-12-22 16:11:00,
2013-12-22 10:16:00,34.2,32.4,29.87,West,265,14.0,14.0,93,0.00,,---,0.02,VWS V14.01,2013-12-22 16:16:00,
2013-12-22 10:21:00,34.3,32.5,29.88,WSW,242,4.0,13.0,93,0.00,,---,0.02,VWS V14.01,2013-12-22 16:21:00,
2013-12-22 10:26:00,34.4,32.3,29.87,WNW,288,5.0,8.0,92,0.00,,---,0.02,VWS V14.01,2013-12-22 16:26:00,
2013-12-22 10:31:00,34.6,32.5,29.87,West,274,8.0,13.0,92,0.00,,---,0.02,VWS V14.01,2013-12-22 16:31:00,
2013-12-22 10:36:00,34.6,32.5,29.88,SW,220,14.0,18.0,92,0.00,,---,0.02,VWS V14.01,2013-12-22 16:36:00,
2013-12-22 10:41:00,34.7,32.3,29.89,WSW,243,6.0,9.0,91,0.00,,---,0.02,VWS V14.01,2013-12-22 16:41:00,
2013-12-22 10:46:00,34.7,32.3,29.89,West,270,8.0,15.0,91,0.00,,---,0.02,VWS V14.01,2013-12-22 16:46:00,
2013-12-22 10:51:00,34.7,32.3,29.89,WSW,257,11.0,15.0,91,0.00,,---,0.02,VWS V14.01,2013-12-22 16:51:00,
2013-12-22 10:56:00,34.8,32.5,29.89,WSW,239,5.0,10.0,91,0.00,,---,0.02,VWS V14.01,2013-12-22 16:56:00,
2013-12-22 11:01:00,34.7,32.3,29.89,West,275,8.0,12.0,91,0.00,,---,0.02,VWS V14.01,2013-12-22 17:01:00,
2013-12-22 11:06:00,34.8,32.5,29.90,SW,235,8.0,17.0,91,0.00,,---,0.02,VWS V14.01,2013-12-22 17:06:00,
2013-12-22 11:11:00,34.8,32.5,29.90,West,280,3.0,7.0,91,0.00,,---,0.02,VWS V14.01,2013-12-22 17:11:00,
2013-12-22 11:16:00,34.8,32.5,29.90,WSW,237,0.0,6.0,91,0.00,,---,0.02,VWS V14.01,2013-12-22 17:16:00,
2013-12-22 11:21:00,34.8,32.7,29.90,WSW,244,4.0,11.0,92,0.00,,---,0.02,VWS V14.01,2013-12-22 17:21:00,
2013-12-22 11:26:00,34.8,32.7,29.90,West,267,9.0,16.0,92,0.00,,---,0.02,VWS V14.01,2013-12-22 17:26:00,
2013-12-22 11:31:00,34.9,32.5,29.90,West,267,13.0,15.0,91,0.00,,---,0.02,VWS V14.01,2013-12-22 17:31:00,
2013-12-22 11:36:00,35.0,32.6,29.90,SW,224,7.0,9.0,91,0.00,,---,0.02,VWS V14.01,2013-12-22 17:36:00,
2013-12-22 11:41:00,35.1,32.7,29.90,NW,309,2.0,14.0,91,0.00,,---,0.02,VWS V14.01,2013-12-22 17:41:00,
2013-12-22 11:46:00,35.0,32.9,29.91,SW,223,1.0,9.0,92,0.00,,---,0.02,VWS V14.01,2013-12-22 17:46:00,
2013-12-22 11:51:00,35.0,32.9,29.91,WNW,295,6.0,14.0,92,0.00,,---,0.02,VWS V14.01,2013-12-22 17:51:00,
2013-12-22 11:56:00,34.8,32.7,29.91,West,264,5.0,10.0,92,0.00,,---,0.02,VWS V14.01,2013-12-22 17:56:00,
2013-12-22 12:01:00,34.7,32.9,29.91,West,261,12.0,13.0,93,0.00,,---,0.02,VWS V14.01,2013-12-22 18:01:00,
2013-12-22 12:06:00,34.7,32.6,29.92,SW,223,3.0,9.0,92,0.00,,---,0.02,VWS V14.01,2013-12-22 18:06:00,
2013-12-22 12:11:00,34.7,32.9,29.92,West,277,4.0,13.0,93,0.00,,---,0.02,VWS V14.01,2013-12-22 18:11:00,
2013-12-22 12:16:00,34.7,32.9,29.92,WSW,240,4.0,7.0,93,0.00,,---,0.02,VWS V14.01,2013-12-22 18:16:00,
2013-12-22 12:21:00,34.8,33.0,29.92,SW,227,4.0,11.0,93,0.00,,---,0.02,VWS V14.01,2013-12-22 18:21:00,
2013-12-22 12:27:00,34.8,33.0,29.91,West,265,0.0,7.0,93,0.00,,---,0.02,VWS V14.01,2013-12-22 18:27:00,
2013-12-22 12:32:00,34.7,32.9,29.91,West,267,2.0,6.0,93,0.00,,---,0.02,VWS V14.01,2013-12-22 18:32:00,
2013-12-22 12:37:00,34.6,32.8,29.92,West,267,7.0,9.0,93,0.00,,---,0.02,VWS V14.01,2013-12-22 18:37:00,
2013-12-22 12:42:00,34.5,32.4,29.91,SW,232,5.0,13.0,92,0.00,,---,0.02,VWS V14.01,2013-12-22 18:42:00,
2013-12-22 12:47:00,34.4,32.3,29.92,West,278,7.0,16.0,92,0.01,,---,0.03,VWS V14.01,2013-12-22 18:47:00,
2013-12-22 12:52:00,34.5,32.4,29.93,WSW,238,13.0,15.0,92,0.01,,---,0.03,VWS V14.01,2013-12-22 18:52:00,
2013-12-22 12:57:00,34.4,32.0,29.93,West,280,6.0,12.0,91,0.01,,---,0.03,VWS V14.01,2013-12-22 18:57:00,
2013-12-22 13:02:00,34.4,32.0,29.93,West,263,8.0,17.0,91,0.01,,---,0.03,VWS V14.01,2013-12-22 19:02:00,
2013-12-22 13:07:00,34.3,32.0,29.93,West,270,8.0,13.0,91,0.01,,---,0.03,VWS V14.01,2013-12-22 19:07:00,
2013-12-22 13:12:00,34.3,32.0,29.93,WSW,252,16.0,16.0,91,0.01,,---,0.03,VWS V14.01,2013-12-22 19:12:00,
2013-12-22 13:17:00,34.2,31.9,29.94,West,259,10.0,16.0,91,0.01,,---,0.03,VWS V14.01,2013-12-22 19:17:00,
2013-12-22 13:22:00,34.2,31.6,29.94,WSW,253,12.0,12.0,90,0.01,,---,0.03,VWS V14.01,2013-12-22 19:22:00,
2013-12-22 13:27:00,34.2,31.9,29.94,West,274,8.0,11.0,91,0.01,,---,0.03,VWS V14.01,2013-12-22 19:27:00,
2013-12-22 13:32:00,34.1,31.8,29.95,WSW,255,6.0,7.0,91,0.01,,---,0.03,VWS V14.01,2013-12-22 19:32:00,
2013-12-22 13:37:00,34.2,31.9,29.95,SW,232,11.0,12.0,91,0.01,,---,0.03,VWS V14.01,2013-12-22 19:37:00,
2013-12-22 13:42:00,34.1,31.8,29.95,West,265,10.0,12.0,91,0.01,,---,0.03,VWS V14.01,2013-12-22 19:42:00,
2013-12-22 13:47:00,34.1,31.8,29.95,West,267,16.0,17.0,91,0.00,,---,0.03,VWS V14.01,2013-12-22 19:47:00,
2013-12-22 13:52:00,34.1,31.5,29.95,West,273,7.0,13.0,90,0.00,,---,0.03,VWS V14.01,2013-12-22 19:52:00,
2013-12-22 13:57:00,33.9,31.3,29.96,West,280,9.0,13.0,90,0.00,,---,0.03,VWS V14.01,2013-12-22 19:57:00,
2013-12-22 14:02:00,33.8,31.2,29.96,WNW,286,5.0,16.0,90,0.00,,---,0.03,VWS V14.01,2013-12-22 20:02:00,
2013-12-22 14:07:00,33.8,31.2,29.96,West,276,4.0,16.0,90,0.00,,---,0.03,VWS V14.01,2013-12-22 20:07:00,
2013-12-22 14:12:00,33.7,31.4,29.96,West,275,5.0,14.0,91,0.00,,---,0.03,VWS V14.01,2013-12-22 20:12:00,
2013-12-22 14:17:00,33.5,31.2,29.96,West,266,5.0,13.0,91,0.00,,---,0.03,VWS V14.01,2013-12-22 20:17:00,
2013-12-22 14:22:00,33.4,31.1,29.97,West,274,8.0,13.0,91,0.00,,---,0.03,VWS V14.01,2013-12-22 20:22:00,
2013-12-22 14:28:00,33.3,31.0,29.98,WNW,296,7.0,9.0,91,0.00,,---,0.03,VWS V14.01,2013-12-22 20:28:00,
2013-12-22 14:33:00,33.3,31.2,29.98,WNW,289,8.0,11.0,92,0.00,,---,0.03,VWS V14.01,2013-12-22 20:33:00,
2013-12-22 14:38:00,33.2,30.9,29.98,West,281,9.0,12.0,91,0.00,,---,0.03,VWS V14.01,2013-12-22 20:38:00,
2013-12-22 14:43:00,33.1,30.8,29.98,West,279,8.0,17.0,91,0.00,,---,0.03,VWS V14.01,2013-12-22 20:43:00,
2013-12-22 14:48:00,33.0,30.7,29.98,WNW,294,6.0,16.0,91,0.00,,---,0.03,VWS V14.01,2013-12-22 20:48:00,
2013-12-22 14:53:00,33.0,30.7,29.98,WNW,287,8.0,11.0,91,0.00,,---,0.03,VWS V14.01,2013-12-22 20:53:00,
2013-12-22 14:58:00,33.0,30.7,29.99,WSW,258,6.0,16.0,91,0.00,,---,0.03,VWS V14.01,2013-12-22 20:58:00,
2013-12-22 15:03:00,32.9,30.6,29.99,West,279,7.0,13.0,91,0.00,,---,0.03,VWS V14.01,2013-12-22 21:03:00,
2013-12-22 15:08:00,32.9,30.6,29.99,West,276,6.0,12.0,91,0.00,,---,0.03,VWS V14.01,2013-12-22 21:08:00,
2013-12-22 15:13:00,32.9,30.6,30.00,West,281,6.0,16.0,91,0.00,,---,0.03,VWS V14.01,2013-12-22 21:13:00,
2013-12-22 15:18:00,32.9,30.6,30.00,WNW,284,8.0,11.0,91,0.00,,---,0.03,VWS V14.01,2013-12-22 21:18:00,
2013-12-22 15:23:00,32.9,30.6,30.00,WNW,285,7.0,10.0,91,0.00,,---,0.03,VWS V14.01,2013-12-22 21:23:00,
2013-12-22 15:28:00,33.0,30.7,30.01,WNW,288,7.0,11.0,91,0.00,,---,0.03,VWS V14.01,2013-12-22 21:28:00,
2013-12-22 15:33:00,32.9,30.6,30.01,West,279,8.0,14.0,91,0.00,,---,0.03,VWS V14.01,2013-12-22 21:33:00,
2013-12-22 15:38:00,32.9,30.3,30.01,West,280,6.0,14.0,90,0.00,,---,0.03,VWS V14.01,2013-12-22 21:38:00,
2013-12-22 15:43:00,32.8,30.2,30.01,West,280,9.0,13.0,90,0.00,,---,0.03,VWS V14.01,2013-12-22 21:43:00,
2013-12-22 15:48:00,32.8,30.2,30.01,West,280,6.0,16.0,90,0.00,,---,0.03,VWS V14.01,2013-12-22 21:48:00,
2013-12-22 15:53:00,32.7,30.1,30.01,WNW,294,10.0,12.0,90,0.00,,---,0.03,VWS V14.01,2013-12-22 21:53:00,
2013-12-22 15:58:00,32.6,30.0,30.01,WNW,303,8.0,17.0,90,0.00,,---,0.03,VWS V14.01,2013-12-22 21:58:00,
2013-12-22 16:03:00,32.6,30.3,30.02,WNW,285,11.0,15.0,91,0.00,,---,0.03,VWS V14.01,2013-12-22 22:03:00,
2013-12-22 16:08:00,32.5,30.2,30.02,WNW,292,11.0,19.0,91,0.00,,---,0.03,VWS V14.01,2013-12-22 22:08:00,
2013-12-22 16:13:00,32.4,30.1,30.02,WNW,301,15.0,19.0,91,0.00,,---,0.03,VWS V14.01,2013-12-22 22:13:00,
2013-12-22 16:18:00,32.4,30.1,30.03,WNW,284,9.0,18.0,91,0.00,,---,0.03,VWS V14.01,2013-12-22 22:18:00,
2013-12-22 16:23:00,32.3,30.0,30.02,WNW,298,10.0,15.0,91,0.00,,---,0.03,VWS V14.01,2013-12-22 22:23:00,
2013-12-22 16:28:00,32.3,30.0,30.03,West,279,8.0,20.0,91,0.00,,---,0.03,VWS V14.01,2013-12-22 22:28:00,
2013-12-22 16:33:00,32.2,29.9,30.03,WNW,300,9.0,16.0,91,0.00,,---,0.03,VWS V14.01,2013-12-22 22:33:00,
2013-12-22 16:38:00,32.2,29.9,30.03,WNW,290,12.0,16.0,91,0.00,,---,0.03,VWS V14.01,2013-12-22 22:38:00,
2013-12-22 16:43:00,32.1,29.8,30.03,NW,304,14.0,18.0,91,0.00,,---,0.03,VWS V14.01,2013-12-22 22:43:00,
2013-12-22 16:48:00,32.0,29.7,30.04,WNW,294,9.0,21.0,91,0.00,,---,0.03,VWS V14.01,2013-12-22 22:48:00,
2013-12-22 16:53:00,31.9,29.6,30.04,WNW,294,16.0,18.0,91,0.00,,---,0.03,VWS V14.01,2013-12-22 22:53:00,
2013-12-22 16:58:00,31.9,29.6,30.04,WNW,298,17.0,21.0,91,0.00,,---,0.03,VWS V14.01,2013-12-22 22:58:00,
2013-12-22 17:03:00,31.8,29.5,30.05,WNW,303,12.0,17.0,91,0.00,,---,0.03,VWS V14.01,2013-12-22 23:03:00,
2013-12-22 17:08:00,31.8,29.8,30.05,WNW,294,9.0,15.0,92,0.00,,---,0.03,VWS V14.01,2013-12-22 23:08:00,
2013-12-22 17:13:00,31.7,29.4,30.05,NNW,327,11.0,20.0,91,0.00,,---,0.03,VWS V14.01,2013-12-22 23:13:00,
2013-12-22 17:18:00,31.6,29.3,30.06,NW,309,8.0,16.0,91,0.00,,---,0.03,VWS V14.01,2013-12-22 23:18:00,
2013-12-22 17:23:00,31.6,29.3,30.06,NW,308,11.0,18.0,91,0.00,,---,0.03,VWS V14.01,2013-12-22 23:23:00,
2013-12-22 17:28:00,31.7,29.4,30.07,WNW,284,12.0,18.0,91,0.00,,---,0.03,VWS V14.01,2013-12-22 23:28:00,
2013-12-22 17:33:00,31.6,29.0,30.07,WNW,298,10.0,18.0,90,0.00,,---,0.03,VWS V14.01,2013-12-22 23:33:00,
2013-12-22 17:38:00,31.6,29.3,30.08,WNW,286,9.0,17.0,91,0.00,,---,0.03,VWS V14.01,2013-12-22 23:38:00,
2013-12-22 17:43:00,31.5,28.9,30.08,NW,305,11.0,16.0,90,0.00,,---,0.03,VWS V14.01,2013-12-22 23:43:00,
2013-12-22 17:48:00,31.5,28.9,30.08,NW,306,10.0,16.0,90,0.00,,---,0.03,VWS V14.01,2013-12-22 23:48:00,
2013-12-22 17:53:00,31.4,28.8,30.09,WNW,292,8.0,13.0,90,0.00,,---,0.03,VWS V14.01,2013-12-22 23:53:00,
2013-12-22 17:58:00,31.4,28.8,30.09,WNW,298,5.0,13.0,90,0.00,,---,0.03,VWS V14.01,2013-12-22 23:58:00,
2013-12-22 18:03:00,31.4,28.8,30.10,NW,304,11.0,16.0,90,0.00,,---,0.03,VWS V14.01,2013-12-23 00:03:00,
2013-12-22 18:09:00,31.4,28.8,30.10,NNW,329,5.0,13.0,90,0.00,,---,0.03,VWS V14.01,2013-12-23 00:09:00,
2013-12-22 18:14:00,31.4,28.8,30.10,WNW,297,3.0,10.0,90,0.00,,---,0.03,VWS V14.01,2013-12-23 00:14:00,
2013-12-22 18:19:00,31.4,28.8,30.10,WNW,284,10.0,12.0,90,0.00,,---,0.03,VWS V14.01,2013-12-23 00:19:00,
2013-12-22 18:24:00,31.4,28.8,30.10,WNW,287,5.0,7.0,90,0.00,,---,0.03,VWS V14.01,2013-12-23 00:24:00,
2013-12-22 18:29:00,31.4,28.8,30.10,WNW,299,4.0,9.0,90,0.00,,---,0.03,VWS V14.01,2013-12-23 00:29:00,
2013-12-22 18:34:00,31.3,28.4,30.11,NW,306,8.0,9.0,89,0.00,,---,0.03,VWS V14.01,2013-12-23 00:34:00,
2013-12-22 18:39:00,31.3,28.7,30.11,WNW,284,8.0,13.0,90,0.00,,---,0.03,VWS V14.01,2013-12-23 00:39:00,
2013-12-22 18:44:00,31.3,28.7,30.11,WNW,302,8.0,9.0,90,0.00,,---,0.03,VWS V14.01,2013-12-23 00:44:00,
2013-12-22 18:49:00,31.2,28.3,30.11,WNW,301,9.0,13.0,89,0.00,,---,0.03,VWS V14.01,2013-12-23 00:49:00,
2013-12-22 18:54:00,31.2,28.3,30.11,WNW,302,6.0,9.0,89,0.00,,---,0.03,VWS V14.01,2013-12-23 00:54:00,
2013-12-22 18:59:00,31.2,28.3,30.12,WNW,294,6.0,11.0,89,0.00,,---,0.03,VWS V14.01,2013-12-23 00:59:00,
2013-12-22 19:04:00,31.2,28.3,30.12,NW,306,12.0,14.0,89,0.00,,---,0.03,VWS V14.01,2013-12-23 01:04:00,
2013-12-22 19:09:00,31.2,28.3,30.12,WNW,291,8.0,13.0,89,0.00,,---,0.03,VWS V14.01,2013-12-23 01:09:00,
2013-12-22 19:14:00,31.2,28.3,30.13,West,277,7.0,12.0,89,0.00,,---,0.03,VWS V14.01,2013-12-23 01:14:00,
2013-12-22 19:19:00,31.2,28.3,30.12,WNW,303,9.0,14.0,89,0.00,,---,0.03,VWS V14.01,2013-12-23 01:19:00,
2013-12-22 19:24:00,31.2,28.3,30.12,WNW,299,9.0,12.0,89,0.00,,---,0.03,VWS V14.01,2013-12-23 01:24:00,
2013-12-22 19:29:00,31.2,28.3,30.13,WNW,299,7.0,14.0,89,0.00,,---,0.03,VWS V14.01,2013-12-23 01:29:00,
2013-12-22 19:34:00,31.2,28.6,30.13,NW,308,7.0,13.0,90,0.00,,---,0.03,VWS V14.01,2013-12-23 01:34:00,
2013-12-22 19:39:00,31.2,28.3,30.13,WNW,300,8.0,14.0,89,0.00,,---,0.03,VWS V14.01,2013-12-23 01:39:00,
2013-12-22 19:44:00,31.0,28.1,30.14,NW,311,13.0,19.0,89,0.00,,---,0.03,VWS V14.01,2013-12-23 01:44:00,
2013-12-22 19:49:00,30.9,28.0,30.14,NNW,337,10.0,19.0,89,0.00,,---,0.03,VWS V14.01,2013-12-23 01:49:00,
2013-12-22 19:54:00,30.8,28.0,30.14,NW,304,10.0,17.0,89,0.00,,---,0.03,VWS V14.01,2013-12-23 01:54:00,
2013-12-22 19:59:00,30.8,28.0,30.14,WNW,293,15.0,15.0,89,0.00,,---,0.03,VWS V14.01,2013-12-23 01:59:00,
2013-12-22 20:05:00,30.8,28.0,30.14,WNW,303,7.0,16.0,89,0.00,,---,0.03,VWS V14.01,2013-12-23 02:05:00,
2013-12-22 20:10:00,30.7,27.9,30.14,WNW,303,14.0,21.0,89,0.00,,---,0.03,VWS V14.01,2013-12-23 02:10:00,
2013-12-22 20:15:00,30.6,27.8,30.15,WNW,299,13.0,17.0,89,0.00,,---,0.03,VWS V14.01,2013-12-23 02:15:00,
2013-12-22 20:20:00,30.6,27.8,30.15,WNW,301,13.0,16.0,89,0.00,,---,0.03,VWS V14.01,2013-12-23 02:20:00,
2013-12-22 20:25:00,30.7,27.9,30.15,NW,304,7.0,15.0,89,0.00,,---,0.03,VWS V14.01,2013-12-23 02:25:00,
2013-12-22 20:30:00,30.6,27.8,30.15,WNW,294,10.0,18.0,89,0.00,,---,0.03,VWS V14.01,2013-12-23 02:30:00,
2013-12-22 20:35:00,30.5,27.6,30.15,NW,319,8.0,19.0,89,0.00,,---,0.03,VWS V14.01,2013-12-23 02:35:00,
2013-12-22 20:40:00,30.4,27.8,30.15,NW,309,8.0,15.0,90,0.00,,---,0.03,VWS V14.01,2013-12-23 02:40:00,
2013-12-22 20:45:00,30.3,27.7,30.15,NW,309,15.0,17.0,90,0.00,,---,0.03,VWS V14.01,2013-12-23 02:45:00,
2013-12-22 20:50:00,30.2,27.6,30.15,WNW,298,16.0,16.0,90,0.00,,---,0.03,VWS V14.01,2013-12-23 02:50:00,
2013-12-22 20:56:00,30.1,27.5,30.15,NW,323,17.0,20.0,90,0.00,,---,0.03,VWS V14.01,2013-12-23 02:56:00,
2013-12-22 21:01:00,29.9,27.3,30.16,NW,313,10.0,17.0,90,0.00,,---,0.03,VWS V14.01,2013-12-23 03:01:00,
2013-12-22 21:06:00,29.7,27.1,30.16,NW,321,10.0,16.0,90,0.00,,---,0.03,VWS V14.01,2013-12-23 03:06:00,
2013-12-22 21:11:00,29.5,26.9,30.16,NW,311,17.0,19.0,90,0.00,,---,0.03,VWS V14.01,2013-12-23 03:11:00,
2013-12-22 21:16:00,29.3,26.7,30.16,WNW,294,10.0,17.0,90,0.00,,---,0.03,VWS V14.01,2013-12-23 03:16:00,
2013-12-22 21:21:00,29.2,26.6,30.16,NW,311,12.0,18.0,90,0.00,,---,0.03,VWS V14.01,2013-12-23 03:21:00,
2013-12-22 21:26:00,29.0,26.4,30.16,NW,304,13.0,21.0,90,0.00,,---,0.03,VWS V14.01,2013-12-23 03:26:00,
2013-12-22 21:31:00,28.9,26.3,30.17,WNW,294,13.0,17.0,90,0.00,,---,0.03,VWS V14.01,2013-12-23 03:31:00,
2013-12-22 21:36:00,28.8,26.2,30.17,WNW,300,9.0,17.0,90,0.00,,---,0.03,VWS V14.01,2013-12-23 03:36:00,
2013-12-22 21:41:00,28.8,26.2,30.17,NW,307,14.0,19.0,90,0.00,,---,0.03,VWS V14.01,2013-12-23 03:41:00,
2013-12-22 21:47:00,28.6,26.0,30.17,WNW,298,10.0,14.0,90,0.00,,---,0.03,VWS V14.01,2013-12-23 03:47:00,
2013-12-22 21:52:00,28.5,25.7,30.17,WNW,294,12.0,21.0,89,0.00,,---,0.03,VWS V14.01,2013-12-23 03:52:00,
2013-12-22 21:57:00,28.5,25.7,30.18,WNW,298,17.0,22.0,89,0.00,,---,0.03,VWS V14.01,2013-12-23 03:57:00,
2013-12-22 22:02:00,28.4,25.9,30.18,WNW,296,15.0,17.0,90,0.00,,---,0.03,VWS V14.01,2013-12-23 04:02:00,
2013-12-22 22:07:00,28.3,25.5,30.19,NW,315,10.0,19.0,89,0.00,,---,0.03,VWS V14.01,2013-12-23 04:07:00,
2013-12-22 22:12:00,28.1,25.3,30.19,NW,304,9.0,20.0,89,0.00,,---,0.03,VWS V14.01,2013-12-23 04:12:00,
2013-12-22 22:17:00,27.9,25.1,30.19,WNW,299,17.0,21.0,89,0.00,,---,0.03,VWS V14.01,2013-12-23 04:17:00,
2013-12-22 22:22:00,27.7,25.2,30.19,WNW,294,16.0,20.0,90,0.00,,---,0.03,VWS V14.01,2013-12-23 04:22:00,
2013-12-22 22:27:00,27.6,25.1,30.20,NW,306,12.0,17.0,90,0.00,,---,0.03,VWS V14.01,2013-12-23 04:27:00,
2013-12-22 22:32:00,27.5,24.7,30.20,WNW,303,16.0,22.0,89,0.00,,---,0.03,VWS V14.01,2013-12-23 04:32:00,
2013-12-22 22:37:00,27.4,24.6,30.20,NW,312,13.0,19.0,89,0.00,,---,0.03,VWS V14.01,2013-12-23 04:37:00,
2013-12-22 22:42:00,27.4,24.6,30.21,WNW,296,13.0,18.0,89,0.00,,---,0.03,VWS V14.01,2013-12-23 04:42:00,
2013-12-22 22:47:00,27.4,24.6,30.21,NW,306,11.0,15.0,89,0.00,,---,0.03,VWS V14.01,2013-12-23 04:47:00,
2013-12-22 22:52:00,27.3,24.5,30.22,WNW,297,11.0,18.0,89,0.00,,---,0.03,VWS V14.01,2013-12-23 04:52:00,
2013-12-22 22:57:00,27.2,24.4,30.22,WNW,293,11.0,18.0,89,0.00,,---,0.03,VWS V14.01,2013-12-23 04:57:00,
2013-12-22 23:01:00,27.2,24.4,30.22,NW,309,8.0,14.0,89,0.00,,---,0.03,VWS V14.01,2013-12-23 05:01:00,
2013-12-22 23:02:00,27.2,24.4,30.23,WNW,298,16.0,17.0,89,0.00,,---,0.03,VWS V14.01,2013-12-23 05:02:00,
2013-12-22 23:07:00,27.3,24.5,30.22,WNW,300,13.0,18.0,89,0.00,,---,0.03,VWS V14.01,2013-12-23 05:07:00,
2013-12-22 23:12:00,27.3,24.5,30.22,NW,313,18.0,19.0,89,0.00,,---,0.03,VWS V14.01,2013-12-23 05:12:00,
2013-12-22 23:17:00,27.2,24.1,30.23,WNW,302,12.0,21.0,88,0.00,,---,0.03,VWS V14.01,2013-12-23 05:17:00,
2013-12-22 23:29:00,27.1,24.3,30.24,NW,311,8.0,20.0,89,0.00,,---,0.03,VWS V14.01,2013-12-23 05:29:00,
2013-12-22 23:35:00,26.9,23.8,30.24,West,279,16.0,20.0,88,0.00,,---,0.03,VWS V14.01,2013-12-23 05:35:00,
2013-12-22 23:40:00,26.8,23.7,30.24,WNW,300,16.0,17.0,88,0.00,,---,0.03,VWS V14.01,2013-12-23 05:40:00,
2013-12-22 23:45:00,26.7,23.6,30.24,WNW,300,17.0,21.0,88,0.00,,---,0.03,VWS V14.01,2013-12-23 05:45:00,
2013-12-22 23:50:00,26.6,23.5,30.25,NW,306,8.0,17.0,88,0.00,,---,0.03,VWS V14.01,2013-12-23 05:50:00,
2013-12-22 23:55:00,26.5,23.4,30.25,WNW,296,10.0,19.0,88,0.00,,---,0.03,VWS V14.01,2013-12-23 05:55:00,